2023/09/03 00:00:00, 0.0,20.7
2023/09/03 00:10:00, 0.0,20.5
2023/09/03 00:20:00, 0.0,20.6
2023/09/03 00:30:00, 0.0,20.9
2023/09/03 00:40:00, 0.0,20.6
2023/09/03 00:50:00, 0.0,20.5
2023/09/03 01:00:00, 0.0,20.5
2023/09/03 01:10:00, 0.0,20.6
2023/09/03 01:20:00, 0.0,20.1
2023/09/03 01:30:00, 0.0,20.1
2023/09/03 01:40:00, 0.0,20.0
2023/09/03 01:50:00, 0.0,19.9
2023/09/03 02:00:00, 0.0,19.8
2023/09/03 02:10:00, 0.0,19.4
2023/09/03 02:20:00, 0.0,19.4
2023/09/03 02:30:00, 2.1,19.6
2023/09/03 02:40:00, 5.3,19.5
2023/09/03 02:50:00, 6.5,19.5
2023/09/03 03:00:00, 7.4,19.5
2023/09/03 03:10:00, 7.4,19.4
2023/09/03 03:20:00, 1.7,19.6
2023/09/03 03:30:00, 0.0,19.3
2023/09/03 03:40:00, 0.0,19.3
2023/09/03 03:50:00, 0.0,19.1
2023/09/03 04:00:00, 0.0,19.2
2023/09/03 04:10:00, 0.0,19.3
2023/09/03 04:20:00, 2.8,19.1
2023/09/03 04:30:00, 0.0,19.0
2023/09/03 04:40:00, 0.0,19.3
2023/09/03 04:50:00, 0.0,19.2
2023/09/03 05:00:00, 0.0,19.0
2023/09/03 05:10:00, 0.0,19.0
2023/09/03 05:20:00, 0.0,19.0
2023/09/03 05:30:00, 0.0,19.2
2023/09/03 05:40:00, 0.0,19.0
2023/09/03 05:50:00, 0.0,18.8
2023/09/03 06:00:00, 0.0,19.0
2023/09/03 06:10:00, 0.0,19.0
2023/09/03 06:20:00, 0.0,19.1
2023/09/03 06:30:00, 0.0,19.0
2023/09/03 06:40:00, 5.4,19.0
2023/09/03 06:50:00,10.4,19.4
2023/09/03 07:00:00,11.0,19.5
2023/09/03 07:10:00,11.5,19.4
2023/09/03 07:20:00,11.9,19.8
2023/09/03 07:30:00,11.9,20.5
2023/09/03 07:40:00,12.5,21.3
2023/09/03 07:50:00,12.6,21.6
2023/09/03 08:00:00,12.9,22.2
2023/09/03 08:10:00,13.0,22.6
2023/09/03 08:20:00,13.1,23.5
2023/09/03 08:30:00,13.1,24.1
2023/09/03 08:40:00,13.1,25.0
2023/09/03 08:50:00,13.9,25.2
2023/09/03 09:00:00,14.4,26.1
2023/09/03 09:10:00,15.0,26.6
2023/09/03 09:20:00,16.2,26.8
2023/09/03 09:30:00,16.7,27.3
2023/09/03 09:40:00,17.2,28.5
2023/09/03 09:50:00,18.5,28.6
2023/09/03 10:00:00,18.1,29.1
2023/09/03 10:10:00,13.3,29.2
2023/09/03 10:20:00,---,29.6
2023/09/03 10:30:00, 8.2,30.3
2023/09/03 10:40:00,---,30.4
2023/09/03 10:50:00, 0.0,31.6
2023/09/03 11:00:00, 0.0,31.4
2023/09/03 11:10:00, 0.0,32.2
2023/09/03 11:20:00, 0.0,33.1
2023/09/03 11:30:00, 0.0,33.4
2023/09/03 11:40:00,---,33.3
2023/09/03 11:50:00, 0.0,32.6
2023/09/03 12:00:00, 0.0,32.7
2023/09/03 12:10:00, 0.7,30.9
2023/09/03 12:20:00, 0.0,30.7
2023/09/03 12:30:00, 7.2,30.3
2023/09/03 12:40:00,---,32.1
2023/09/03 12:50:00, 0.0,32.4
2023/09/03 13:00:00,---,33.6
2023/09/03 13:10:00, 7.6,33.8
2023/09/03 13:20:00, 7.0,32.3
2023/09/03 13:30:00, 9.0,33.3
2023/09/03 13:40:00, 0.7,33.8
2023/09/03 13:50:00, 5.1,32.5
2023/09/03 14:00:00,15.2,32.1
2023/09/03 14:10:00,12.6,33.1
2023/09/03 14:20:00,10.8,32.8
2023/09/03 14:30:00, 7.8,33.6
2023/09/03 14:40:00,10.0,33.3
2023/09/03 14:50:00, 7.7,31.8
2023/09/03 15:00:00,13.6,30.9
2023/09/03 15:10:00,12.6,31.4
2023/09/03 15:20:00, 6.1,31.0
2023/09/03 15:30:00, 9.1,30.5
2023/09/03 15:40:00,14.0,30.1
2023/09/03 15:50:00,15.0,29.7
2023/09/03 16:00:00,14.8,30.1
2023/09/03 16:10:00,14.4,30.7
2023/09/03 16:20:00,14.6,30.1
2023/09/03 16:30:00,12.3,30.0
2023/09/03 16:40:00,---,30.0
2023/09/03 16:50:00,18.4,29.1
2023/09/03 17:00:00,18.5,28.8
2023/09/03 17:10:00,17.9,28.7
2023/09/03 17:20:00,17.4,28.5
2023/09/03 17:30:00,17.2,28.0
2023/09/03 17:40:00,17.0,27.8
2023/09/03 17:50:00,16.8,27.3
2023/09/03 18:00:00,16.2,27.1
2023/09/03 18:10:00,15.5,27.0
2023/09/03 18:20:00,14.3,26.7
2023/09/03 18:30:00, 4.8,26.4
2023/09/03 18:40:00, 0.0,26.2
2023/09/03 18:50:00, 0.0,25.9
2023/09/03 19:00:00, 0.0,25.3
2023/09/03 19:10:00, 0.0,25.1
2023/09/03 19:20:00, 0.0,25.0
2023/09/03 19:30:00, 0.0,24.7
2023/09/03 19:40:00, 0.0,24.4
2023/09/03 19:50:00, 0.0,24.1
2023/09/03 20:00:00, 0.0,23.9
2023/09/03 20:10:00, 0.0,24.0
2023/09/03 20:20:00, 0.0,23.7
2023/09/03 20:30:00, 0.0,23.5
2023/09/03 20:40:00, 0.0,23.2
2023/09/03 20:50:00, 0.0,23.3
2023/09/03 21:00:00, 0.0,23.6
2023/09/03 21:10:00, 0.0,22.9
2023/09/03 21:20:00, 0.0,22.8
2023/09/03 21:30:00, 0.0,22.8
2023/09/03 21:40:00, 0.0,22.5
2023/09/03 21:50:00, 0.0,22.2
2023/09/03 22:00:00, 0.0,22.4
2023/09/03 22:10:00, 0.0,22.3
2023/09/03 22:20:00, 0.0,22.1
2023/09/03 22:30:00, 0.0,22.1
2023/09/03 22:40:00, 0.0,21.9
2023/09/03 22:50:00, 0.0,21.9
2023/09/03 23:00:00, 0.0,21.7
2023/09/03 23:10:00, 0.0,21.7
2023/09/03 23:20:00, 0.0,21.5
2023/09/03 23:30:00, 0.0,21.4
2023/09/03 23:40:00, 0.0,21.4
2023/09/03 23:50:00, 0.0,21.4
